| time (UTC) | temp C | wind direction | speed KPH | gust KPH | rain 1hr cm | rain 24hr cm | rain mn cm | humidity % | barometer mb |
| 20260503224004 | 29 | 20 | 3.2 | 9.7 | 0.00 | 0.00 | 0.00 | 36 | 1009.2 |
| 20260503223504 | 29 | 17 | 3.2 | 14.5 | 0.00 | 0.00 | 0.00 | 38 | 1009.3 |
| 20260503223004 | 29 | 0 | 8.0 | 16.1 | 0.00 | 0.00 | 0.00 | 35 | 1009.3 |
| 20260503222504 | 29 | 27 | 3.2 | 4.8 | 0.00 | 0.00 | 0.00 | 36 | 1009.4 |
| 20260503221504 | 29 | 33 | 3.2 | 12.9 | 0.00 | 0.00 | 0.00 | 37 | 1009.6 |
| 20260503221003 | 29 | 348 | 4.8 | 14.5 | 0.00 | 0.00 | 0.00 | 34 | 1009.6 |
| 20260503220504 | 29 | 75 | 3.2 | 8.0 | 0.00 | 0.00 | 0.00 | 36 | 1009.7 |
| 20260503215504 | 29 | 42 | 6.4 | 14.5 | 0.00 | 0.00 | 0.00 | 37 | 1009.8 |
| 20260503215004 | 29 | 27 | 3.2 | 4.8 | 0.00 | 0.00 | 0.00 | 38 | 1009.9 |
| 20260503214003 | 29 | 335 | 4.8 | 9.7 | 0.00 | 0.00 | 0.00 | 37 | 1010.0 |
| 20260503213504 | 29 | 30 | 3.2 | 12.9 | 0.00 | 0.00 | 0.00 | 41 | 1010.1 |
| 20260503213004 | 29 | 36 | 3.2 | 4.8 | 0.00 | 0.00 | 0.00 | 40 | 1010.2 |
| 20260503212504 | 29 | 22 | 4.8 | 12.9 | 0.00 | 0.00 | 0.00 | 43 | 1010.2 |
| 20260503212004 | 29 | 338 | 4.8 | 12.9 | 0.00 | 0.00 | 0.00 | 38 | 1010.2 |
| 20260503211504 | 28 | 353 | 3.2 | 8.0 | 0.00 | 0.00 | 0.00 | 43 | 1010.3 |
| 20260503211004 | 28 | 19 | 4.8 | 8.0 | 0.00 | 0.00 | 0.00 | 40 | 1010.4 |
| 20260503210504 | 28 | 313 | 6.4 | 11.3 | 0.00 | 0.00 | 0.00 | 38 | 1010.4 |
| 20260503205004 | 28 | 23 | 4.8 | 12.9 | 0.00 | 0.00 | 0.00 | 43 | 1010.5 |
| 20260503204504 | 28 | 352 | 3.2 | 8.0 | 0.00 | 0.00 | 0.00 | 39 | 1010.5 |
| 20260503204004 | 28 | 22 | 4.8 | 9.7 | 0.00 | 0.00 | 0.00 | 47 | 1010.6 |
| 20260503203004 | 27 | 352 | 4.8 | 8.0 | 0.00 | 0.00 | 0.00 | 43 | 1010.7 |
| 20260503202504 | 27 | 24 | 6.4 | 14.5 | 0.00 | 0.00 | 0.00 | 46 | 1010.9 |
| 20260503202004 | 27 | 0 | 3.2 | 4.8 | 0.00 | 0.00 | 0.00 | 45 | 1010.9 |
| 20260503201503 | 27 | 317 | 3.2 | 4.8 | 0.00 | 0.00 | 0.00 | 48 | 1010.9 |
| 20260503201004 | 27 | 4 | 3.2 | 8.0 | 0.00 | 0.00 | 0.00 | 48 | 1010.9 |
| 20260503200504 | 27 | 14 | 4.8 | 8.0 | 0.00 | 0.00 | 0.00 | 49 | 1011.0 |
| 20260503200004 | 27 | 0 | 4.8 | 8.0 | 0.00 | 0.00 | 0.00 | 49 | 1011.1 |
| 20260503195504 | 27 | 338 | 4.8 | 9.7 | 0.00 | 0.00 | 0.00 | 50 | 1011.1 |
| 20260503195004 | 26 | 336 | 4.8 | 12.9 | 0.00 | 0.00 | 0.00 | 50 | 1011.2 |
| 20260503194504 | 26 | 11 | 3.2 | 4.8 | 0.00 | 0.00 | 0.00 | 52 | 1011.2 |
| 20260503194004 | 26 | 4 | 3.2 | 4.8 | 0.00 | 0.00 | 0.00 | 52 | 1011.2 |
| 20260503193504 | 26 | 336 | 3.2 | 8.0 | 0.00 | 0.00 | 0.00 | 51 | 1011.3 |
| 20260503193003 | 26 | 6 | 4.8 | 4.8 | 0.00 | 0.00 | 0.00 | 53 | 1011.4 |
| 20260503192503 | 26 | 340 | 4.8 | 8.0 | 0.00 | 0.00 | 0.00 | 50 | 1011.4 |
| 20260503192003 | 25 | 344 | 3.2 | 8.0 | 0.00 | 0.00 | 0.00 | 57 | 1011.5 |
| 20260503191004 | 25 | 354 | 3.2 | 8.0 | 0.00 | 0.00 | 0.00 | 57 | 1011.6 |
| 20260503190504 | 25 | 331 | 3.2 | 4.8 | 0.00 | 0.00 | 0.00 | 57 | 1011.6 |
| 20260503185506 | 24 | 348 | 3.2 | 4.8 | 0.00 | 0.00 | 0.00 | 57 | 1011.7 |
| 20260503185004 | 24 | 325 | 3.2 | 8.0 | 0.00 | 0.00 | 0.00 | 62 | 1011.7 |
| 20260503184504 | 24 | 357 | 3.2 | 4.8 | 0.00 | 0.00 | 0.00 | 58 | 1011.8 |
| 20260503183504 | 23 | 344 | 4.8 | 8.0 | 0.00 | 0.00 | 0.00 | 59 | 1011.8 |
| 20260503183004 | 23 | 20 | 3.2 | 8.0 | 0.00 | 0.00 | 0.00 | 61 | 1011.9 |
| 20260503182504 | 23 | 346 | 3.2 | 4.8 | 0.00 | 0.00 | 0.00 | 61 | 1012.0 |
| 20260503182004 | 23 | 349 | 3.2 | 9.7 | 0.00 | 0.00 | 0.00 | 60 | 1011.9 |
| 20260503181505 | 22 | 345 | 4.8 | 8.0 | 0.00 | 0.00 | 0.00 | 61 | 1011.9 |
| 20260503181004 | 22 | 16 | 3.2 | 9.7 | 0.00 | 0.00 | 0.00 | 63 | 1012.0 |
| 20260503180504 | 22 | 0 | 3.2 | 8.0 | 0.00 | 0.00 | 0.00 | 62 | 1011.9 |
| 20260503180004 | 22 | 5 | 3.2 | 8.0 | 0.00 | 0.00 | 0.00 | 63 | 1012.0 |
| 20260503175504 | 22 | 337 | 3.2 | 8.0 | 0.00 | 0.00 | 0.00 | 67 | 1011.9 |
| 20260503175004 | 21 | 327 | 3.2 | 8.0 | 0.00 | 0.00 | 0.00 | 65 | 1011.9 |
| 20260503174504 | 21 | 347 | 3.2 | 8.0 | 0.00 | 0.00 | 0.00 | 68 | 1012.0 |
| 20260503173004 | 21 | 331 | 4.8 | 4.8 | 0.00 | 0.00 | 0.00 | 68 | 1012.1 |
| 20260503172504 | 20 | 334 | 4.8 | 8.0 | 0.00 | 0.00 | 0.00 | 70 | 1012.2 |
| 20260503172004 | 20 | 337 | 4.8 | 8.0 | 0.00 | 0.00 | 0.00 | 71 | 1012.2 |
| 20260503171004 | 20 | 358 | 3.2 | 4.8 | 0.00 | 0.00 | 0.00 | 73 | 1012.2 |
| 20260503170505 | 19 | 10 | 3.2 | 4.8 | 0.00 | 0.00 | 0.00 | 77 | 1012.2 |
| 20260503131004 | 14 | 5 | 1.6 | 3.2 | 0.00 | 0.00 | 0.00 | 81 | 1011.8 |
| 20260503130504 | 14 | 5 | 1.6 | 3.2 | 0.00 | 0.00 | 0.00 | 81 | 1011.8 |
| 20260503090504 | 15 | 128 | 1.6 | 1.6 | 0.00 | 0.00 | 0.00 | 81 | 1012.4 |
| 20260503081503 | 16 | 110 | 0.0 | 3.2 | 0.00 | 0.00 | 0.00 | 76 | 1012.5 |
| 20260503081003 | 16 | 94 | 0.0 | 3.2 | 0.00 | 0.00 | 0.00 | 76 | 1012.4 |
| 20260503080504 | 16 | 94 | 0.0 | 3.2 | 0.00 | 0.00 | 0.00 | 76 | 1012.4 |
| 20260503071505 | 16 | 25 | 3.2 | 4.8 | 0.00 | 0.00 | 0.00 | 76 | 1012.4 |
| 20260503071004 | 16 | 26 | 3.2 | 8.0 | 0.00 | 0.00 | 0.00 | 75 | 1012.4 |
| 20260503070504 | 16 | 28 | 3.2 | 8.0 | 0.00 | 0.00 | 0.00 | 76 | 1012.5 |
| 20260503055004 | 17 | 11 | 1.6 | 3.2 | 0.00 | 0.00 | 0.00 | 79 | 1013.2 |
| 20260503054503 | 17 | 40 | 1.6 | 3.2 | 0.00 | 0.00 | 0.00 | 77 | 1013.1 |
| 20260503054004 | 17 | 40 | 1.6 | 1.6 | 0.00 | 0.00 | 0.00 | 76 | 1013.3 |
| 20260503053503 | 17 | 40 | 1.6 | 3.2 | 0.00 | 0.00 | 0.00 | 75 | 1013.2 |
| 20260503053004 | 17 | 21 | 1.6 | 3.2 | 0.00 | 0.00 | 0.00 | 75 | 1013.2 |
| 20260503052503 | 17 | 35 | 1.6 | 3.2 | 0.00 | 0.00 | 0.00 | 75 | 1013.2 |
| 20260503052003 | 18 | 88 | 1.6 | 3.2 | 0.00 | 0.00 | 0.00 | 75 | 1013.3 |
| 20260503051504 | 18 | 88 | 1.6 | 3.2 | 0.00 | 0.00 | 0.00 | 74 | 1013.3 |
| 20260503051004 | 18 | 88 | 0.0 | 1.6 | 0.00 | 0.00 | 0.00 | 73 | 1013.2 |
| 20260503050504 | 18 | 88 | 1.6 | 1.6 | 0.00 | 0.00 | 0.00 | 72 | 1013.2 |
| 20260503050004 | 18 | 88 | 0.0 | 0.0 | 0.00 | 0.00 | 0.00 | 71 | 1013.2 |
| 20260503045504 | 18 | 88 | 0.0 | 3.2 | 0.00 | 0.00 | 0.00 | 69 | 1013.1 |
| 20260503045004 | 18 | 88 | 0.0 | 1.6 | 0.00 | 0.00 | 0.00 | 66 | 1013.0 |
| 20260503044504 | 18 | 88 | 1.6 | 1.6 | 0.00 | 0.00 | 0.00 | 65 | 1013.1 |
| 20260503044004 | 18 | 88 | 0.0 | 0.0 | 0.00 | 0.00 | 0.00 | 64 | 1013.0 |
| 20260503043504 | 18 | 88 | 0.0 | 1.6 | 0.00 | 0.00 | 0.00 | 64 | 1013.0 |
| 20260503043003 | 18 | 88 | 1.6 | 1.6 | 0.00 | 0.00 | 0.00 | 64 | 1012.9 |
| 20260503042503 | 18 | 88 | 1.6 | 1.6 | 0.00 | 0.00 | 0.00 | 65 | 1012.9 |
| 20260503042004 | 19 | 88 | 1.6 | 3.2 | 0.00 | 0.00 | 0.00 | 64 | 1012.9 |
| 20260503041504 | 19 | 88 | 1.6 | 3.2 | 0.00 | 0.00 | 0.00 | 65 | 1012.8 |
| 20260503040504 | 19 | 88 | 1.6 | 3.2 | 0.00 | 0.00 | 0.00 | 64 | 1012.6 |
| 20260503040004 | 19 | 88 | 1.6 | 3.2 | 0.00 | 0.00 | 0.00 | 65 | 1012.5 |
| 20260503035504 | 19 | 88 | 1.6 | 3.2 | 0.00 | 0.00 | 0.00 | 65 | 1012.5 |
| 20260503035004 | 19 | 88 | 1.6 | 3.2 | 0.00 | 0.00 | 0.00 | 64 | 1012.4 |
| 20260503034504 | 20 | 183 | 1.6 | 1.6 | 0.00 | 0.00 | 0.00 | 63 | 1012.4 |
| 20260503034003 | 20 | 183 | 0.0 | 3.2 | 0.00 | 0.00 | 0.00 | 63 | 1012.4 |
| 20260503033504 | 20 | 98 | 1.6 | 4.8 | 0.00 | 0.00 | 0.00 | 64 | 1012.3 |
| 20260503033004 | 20 | 89 | 1.6 | 3.2 | 0.00 | 0.00 | 0.00 | 63 | 1012.2 |
| 20260503032504 | 21 | 161 | 0.0 | 3.2 | 0.00 | 0.00 | 0.00 | 61 | 1012.2 |
| 20260503032004 | 21 | 161 | 1.6 | 4.8 | 0.00 | 0.00 | 0.00 | 60 | 1012.1 |
| 20260503031504 | 21 | 146 | 1.6 | 4.8 | 0.00 | 0.00 | 0.00 | 59 | 1011.8 |
| 20260503031004 | 21 | 338 | 3.2 | 4.8 | 0.00 | 0.00 | 0.00 | 59 | 1011.6 |
| 20260503030504 | 21 | 6 | 3.2 | 4.8 | 0.00 | 0.00 | 0.00 | 57 | 1011.4 |
| 20260503030004 | 21 | 343 | 3.2 | 8.0 | 0.00 | 0.00 | 0.00 | 57 | 1011.2 |
| 20260503025504 | 21 | 359 | 4.8 | 9.7 | 0.00 | 0.00 | 0.00 | 56 | 1011.1 |
| 20260503024504 | 22 | 15 | 6.4 | 12.9 | 0.00 | 0.00 | 0.00 | 57 | 1011.0 |
| 20260503023504 | 22 | 17 | 4.8 | 4.8 | 0.00 | 0.00 | 0.00 | 56 | 1010.9 |
| 20260503023004 | 22 | 13 | 3.2 | 4.8 | 0.00 | 0.00 | 0.00 | 56 | 1011.0 |
| 20260503022504 | 22 | 9 | 4.8 | 12.9 | 0.00 | 0.00 | 0.00 | 56 | 1011.0 |
| 20260503022004 | 23 | 9 | 4.8 | 8.0 | 0.00 | 0.00 | 0.00 | 55 | 1011.0 |
| 20260503021503 | 23 | 337 | 4.8 | 14.5 | 0.00 | 0.00 | 0.00 | 54 | 1011.0 |
| 20260503021003 | 23 | 28 | 4.8 | 8.0 | 0.00 | 0.00 | 0.00 | 54 | 1011.0 |
| 20260503020503 | 23 | 1 | 6.4 | 16.1 | 0.00 | 0.00 | 0.00 | 55 | 1011.2 |
| 20260503020004 | 23 | 13 | 3.2 | 8.0 | 0.00 | 0.00 | 0.00 | 54 | 1011.1 |
| 20260503015504 | 23 | 25 | 8.0 | 19.3 | 0.00 | 0.00 | 0.00 | 54 | 1011.2 |
| 20260503015004 | 23 | 4 | 3.2 | 8.0 | 0.00 | 0.00 | 0.00 | 55 | 1011.1 |
| 20260503014504 | 23 | 24 | 8.0 | 14.5 | 0.00 | 0.00 | 0.00 | 53 | 1011.1 |
| 20260503014004 | 23 | 12 | 6.4 | 20.9 | 0.00 | 0.00 | 0.00 | 54 | 1011.1 |
| 20260503013504 | 23 | 22 | 3.2 | 4.8 | 0.00 | 0.00 | 0.00 | 56 | 1011.2 |
| 20260503013004 | 23 | 29 | 4.8 | 9.7 | 0.00 | 0.00 | 0.00 | 53 | 1011.2 |
| 20260503012503 | 24 | 21 | 3.2 | 8.0 | 0.00 | 0.00 | 0.00 | 53 | 1011.2 |
| 20260503012003 | 24 | 344 | 4.8 | 8.0 | 0.00 | 0.00 | 0.00 | 53 | 1011.2 |
| 20260503011504 | 24 | 327 | 3.2 | 9.7 | 0.00 | 0.00 | 0.00 | 53 | 1011.2 |
| 20260503011004 | 24 | 345 | 3.2 | 4.8 | 0.00 | 0.00 | 0.00 | 54 | 1011.2 |
| 20260503010504 | 24 | 5 | 3.2 | 4.8 | 0.00 | 0.00 | 0.00 | 54 | 1011.2 |
| 20260503010003 | 24 | 2 | 4.8 | 8.0 | 0.00 | 0.00 | 0.00 | 54 | 1011.2 |
| 20260503005504 | 24 | 22 | 4.8 | 8.0 | 0.00 | 0.00 | 0.00 | 53 | 1011.1 |
| 20260503005003 | 24 | 32 | 3.2 | 12.9 | 0.00 | 0.00 | 0.00 | 53 | 1011.2 |
| 20260503004504 | 24 | 342 | 3.2 | 8.0 | 0.00 | 0.00 | 0.00 | 52 | 1011.2 |
| 20260503004003 | 24 | 330 | 4.8 | 12.9 | 0.00 | 0.00 | 0.00 | 52 | 1011.2 |
| 20260503003504 | 24 | 39 | 3.2 | 8.0 | 0.00 | 0.00 | 0.00 | 55 | 1011.2 |
| 20260503003004 | 24 | 9 | 4.8 | 19.3 | 0.00 | 0.00 | 0.00 | 55 | 1011.3 |
| 20260503002504 | 24 | 32 | 4.8 | 14.5 | 0.00 | 0.00 | 0.00 | 54 | 1011.2 |
| 20260503002003 | 24 | 353 | 4.8 | 12.9 | 0.00 | 0.00 | 0.00 | 55 | 1011.3 |
| 20260503001503 | 24 | 12 | 4.8 | 14.5 | 0.00 | 0.00 | 0.00 | 54 | 1011.2 |
| 20260503001003 | 24 | 341 | 4.8 | 20.9 | 0.00 | 0.00 | 0.00 | 56 | 1011.2 |
| 20260503000504 | 24 | 344 | 8.0 | 14.5 | 0.00 | 0.00 | 0.00 | 56 | 1011.3 |
| 20260503000004 | 23 | 0 | 4.8 | 19.3 | 0.00 | 0.00 | 0.00 | 59 | 1011.3 |
| 20260502235504 | 23 | 352 | 9.7 | 19.3 | 0.00 | 0.00 | 0.00 | 56 | 1011.3 |
| 20260502235003 | 23 | 19 | 6.4 | 11.3 | 0.00 | 0.00 | 0.00 | 56 | 1011.3 |
| 20260502234503 | 23 | 14 | 4.8 | 9.7 | 0.00 | 0.00 | 0.00 | 58 | 1011.5 |
| 20260502234004 | 23 | 27 | 4.8 | 11.3 | 0.00 | 0.00 | 0.00 | 59 | 1011.5 |
| 20260502233004 | 23 | 6 | 4.8 | 12.9 | 0.00 | 0.00 | 0.00 | 59 | 1011.5 |
| 20260502232504 | 23 | 341 | 4.8 | 14.5 | 0.00 | 0.00 | 0.00 | 60 | 1011.6 |
| 20260502232003 | 23 | 355 | 3.2 | 8.0 | 0.00 | 0.00 | 0.00 | 62 | 1011.7 |
| 20260502231504 | 23 | 357 | 4.8 | 14.5 | 0.00 | 0.00 | 0.00 | 60 | 1011.9 |
| 20260502231004 | 23 | 24 | 4.8 | 9.7 | 0.00 | 0.00 | 0.00 | 59 | 1011.9 |
| 20260502230504 | 22 | 333 | 8.0 | 16.1 | 0.00 | 0.00 | 0.00 | 58 | 1011.9 |
| 20260502230003 | 22 | 37 | 4.8 | 11.3 | 0.00 | 0.00 | 0.00 | 58 | 1012.0 |
| 20260502225004 | 22 | 17 | 8.0 | 12.9 | 0.00 | 0.00 | 0.00 | 58 | 1012.2 |
| 20260502224504 | 22 | 21 | 3.2 | 9.7 | 0.00 | 0.00 | 0.00 | 62 | 1012.2 |